User: anonymous   Login
Location: Bailleul
(50.3375°N, 2.8513°E)
Time: 14:16:52
(UTC+00:00)
Language:

FALCON 9 DEB - Orbit

View from above orbital plane
View from above orbital plane
View from above satellite
View from above satellite

Ground track
Ground track

The orbit data is extracted from the following two-line orbital elements,

1 46087U 20055BN  21265.11013526  .00024022  00000-0  20187-3 0  9993
2 46087  53.0044  78.1433 0009973 184.3687 175.7243 15.69734908 68863
Epoch (UTC): 22 September 2021 02:38:35
Eccentricity: 0.0009973
inclination: 53.0044°
perigee height: 353 km
apogee height: 366 km
right ascension of ascending node: 78.1433°
argument of perigee: 184.3687°
revolutions per day: 15.69734908
mean anomaly at epoch: 175.7243°
orbit number at epoch: 6886

The dashed part of the orbit path shows where the satellite is in the earth's shadow,  

DLR